SM7SJR-13 Weather Reports


Display with metric or nautical units.
time (UTC)temp
F
wind
direction
speed
MPH
gust
MPH
rain 1hr
in
rain 24hr
in
rain mn
in
humidity
%
barometer
mb
20260510193005 46 182 2.0 5.0 0.00 0.00 0.00 72 1006.9
20260510191504 48 178 2.0 8.0 0.00 0.00 0.00 67 1006.9
20260510190004 50 161 3.0 7.0 0.00 0.00 0.00 63 1006.9
20260510184503 52 165 4.0 10.0 0.00 0.00 0.00 59 1007.0
20260510183004 53 160 5.0 9.0 0.00 0.00 0.00 56 1007.3
20260510181504 53 165 3.0 8.0 0.00 0.00 0.00 51 1007.3
20260510174504 53 183 3.0 8.0 0.00 0.00 0.00 48 1007.4
20260510173004 53 170 4.0 10.0 0.00 0.00 0.00 50 1007.4
20260510171503 53 171 2.0 5.0 0.00 0.00 0.00 55 1008.0
20260510170004 53 193 2.0 5.0 0.00 0.00 0.00 57 1008.0
20260510164503 54 182 1.0 3.0 0.00 0.00 0.00 56 1008.4
20260510163004 54 191 2.0 7.0 0.00 0.00 0.00 57 1008.4
20260510161504 54 191 1.0 7.0 0.00 0.00 0.00 58 1008.4
20260510154504 54 195 3.0 7.0 0.00 0.00 0.00 54 1008.8
20260510153004 54 182 2.0 6.0 0.00 0.00 0.00 53 1008.8
20260510151503 54 185 2.0 7.0 0.00 0.00 0.00 52 1009.0
20260510150004 54 187 3.0 6.0 0.00 0.00 0.00 51 1010.0
20260510144503 54 177 1.0 9.0 0.00 0.00 0.00 52 1010.0
20260510143004 54 190 4.0 14.0 0.00 0.00 0.00 49 1010.0
20260510141504 54 172 3.0 10.0 0.00 0.00 0.00 48 1010.0
20260510140004 55 183 5.0 12.0 0.00 0.00 0.00 45 1010.3
20260510134505 55 186 6.0 14.0 0.00 0.00 0.00 40 1010.3
20260510133006 56 178 5.0 14.0 0.00 0.00 0.00 37 1010.4
20260510130004 58 163 7.0 13.0 0.00 0.00 0.00 42 1010.7
20260510124503 58 168 6.0 12.0 0.00 0.00 0.00 42 1011.0
20260510123005 57 216 5.0 14.0 0.00 0.00 0.00 44 1011.0
20260510121504 57 182 6.0 14.0 0.00 0.00 0.00 44 1011.1
20260510114504 58 177 5.0 15.0 0.00 0.00 0.00 42 1011.7
20260510111504 58 175 6.0 14.0 0.00 0.00 0.00 40 1011.9
20260510104503 60 175 8.0 16.0 0.00 0.00 0.00 40 1012.1
20260510103003 60 206 11.0 16.0 0.00 0.00 0.00 41 1012.1
20260510101504 60 193 2.0 15.0 0.00 0.00 0.00 41 1012.2
20260510100004 62 177 3.0 15.0 0.00 0.00 0.00 40 1012.3
20260510094505 61 145 10.0 15.0 0.00 0.00 0.00 38 1012.7
20260510084504 60 173 1.0 10.0 0.00 0.00 0.00 37 1013.5
20260510083006 59 198 1.0 12.0 0.00 0.00 0.00 38 1013.9
20260510081503 59 130 7.0 14.0 0.00 0.00 0.00 36 1013.8
20260510080004 58 188 3.0 12.0 0.00 0.00 0.00 41 1014.1
20260510074505 57 224 3.0 8.0 0.00 0.00 0.00 47 1014.4
20260510071504 55 210 4.0 6.0 0.00 0.00 0.00 47 1014.5
20260510070005 55 184 1.0 7.0 0.00 0.00 0.00 49 1014.8
20260510064503 53 189 2.0 5.0 0.00 0.00 0.00 58 1015.1
20260510063003 52 171 1.0 7.0 0.00 0.00 0.00 62 1015.6
20260510061504 50 148 1.0 5.0 0.00 0.00 0.00 68 1015.6
20260510060003 48 202 0.0 6.0 0.00 0.00 0.00 72 1015.6
20260510054504 46 194 1.0 5.0 0.00 0.00 0.00 80 1015.6
20260510053004 43 175 1.0 5.0 0.00 0.00 0.00 86 1015.7
20260510051503 41 160 2.0 3.0 0.00 0.00 0.00 94 1015.8
20260510050004 39 155 1.0 2.0 0.00 0.00 0.00 95 1015.9
20260510043004 33 155 2.0 2.0 0.00 0.00 0.00 95 1016.1
20260510041504 32 155 1.0 3.0 0.00 0.00 0.00 96 1016.1
20260510040004 29 155 2.0 3.0 0.00 0.00 0.00 96 1016.3
20260510034503 28 155 0.0 0.0 0.00 0.00 0.00 95 1016.3
20260510033005 27 155 0.0 0.0 0.00 0.00 0.00 95 1016.6
20260510030004 27 155 0.0 0.0 0.00 0.00 0.00 95 1016.9
20260510024504 28 155 0.0 0.0 0.00 0.00 0.00 95 1017.1
20260510020004 28 155 0.0 0.0 0.00 0.00 0.00 94 1017.5
20260510013003 28 155 1.0 3.0 0.00 0.00 0.00 94 1017.8
20260510011504 29 155 2.0 3.0 0.00 0.00 0.00 94 1018.0
20260510010005 29 155 2.0 3.0 0.00 0.00 0.00 94 1018.0
20260510004504 29 155 3.0 5.0 0.00 0.00 0.00 94 1018.2
20260510003004 29 150 1.0 3.0 0.00 0.00 0.00 94 1018.2
20260510001504 30 150 2.0 3.0 0.00 0.00 0.00 94 1018.5
20260509234503 30 150 3.0 3.0 0.00 0.00 0.00 94 1018.7
20260509230003 31 107 0.0 0.0 0.00 0.00 0.00 93 1019.0
20260509223003 32 107 0.0 0.0 0.00 0.00 0.00 93 1019.5
20260509221503 33 107 0.0 0.0 0.00 0.00 0.00 93 1019.5
20260509220005 33 107 0.0 0.0 0.00 0.00 0.00 92 1019.5
20260509214503 34 107 0.0 0.0 0.00 0.00 0.00 92 1019.7
20260509213003 34 107 0.0 0.0 0.00 0.00 0.00 92 1019.7
20260509211504 35 107 0.0 0.0 0.00 0.00 0.00 92 1019.7
20260509210003 36 107 0.0 0.0 0.00 0.00 0.00 91 1019.6
20260509204504 37 107 0.0 0.0 0.00 0.00 0.00 90 1019.7
20260509203005 37 107 0.0 0.0 0.00 0.00 0.00 90 1019.8
20260509201504 38 104 0.0 0.0 0.00 0.00 0.00 89 1019.8
20260509200004 39 104 0.0 2.0 0.00 0.00 0.00 89 1019.9
20260509194504 40 104 0.0 0.0 0.00 0.00 0.00 87 1019.9